Ortonville, MN

6:36 PM CDT on April 24, 2018 (GMT -0500)
Ortonville Municipal-Martinson

Weather History for KVVV - October, 2013

Change the Weather History Date:

Monday, October 21, 2013

  Actual Average (KAQP) Record (KAQP)
Temperature  
Mean Temperature 34 °F -  
Max Temperature 42 °F 52 °F 73 °F (2017)
Min Temperature 26 °F 33 °F 24 °F (1997)
Degree Days  
Heating Degree Days 31    
Moisture  
Dew Point 22 °F    
Average Humidity 61    
Maximum Humidity 86    
Minimum Humidity 42    
Precipitation  
Precipitation 0.00 in - - ()
Sea Level Pressure  
Sea Level Pressure 29.97 in    
Wind  
Wind Speed 8 mph (NNW)    
Max Wind Speed 15 mph    
Max Gust Speed 20 mph    
Visibility 10 miles    
Events      
Averages and records for this station are not official NWS values.
T = Trace of Precipitation, MM = Missing Value Source: NWS Daily Summary

Daily Weather History Graph

Daily Weather History Graph

Search for Another Location

Airport or City:

Astronomy

Oct. 21, 2013 Rise Set
Actual Time 7:50 AM CDT 6:29 PM CDT
Civil Twilight 7:20 AM CDT 6:59 PM CDT
Nautical Twilight 6:45 AM CDT 7:34 PM CDT
Astronomical Twilight 6:11 AM CDT 8:08 PM CDT
Moon 8:16 PM CDT (10/21) 10:32 AM CDT (10/21)
Length of Visible Light 11h 39m
Length of Day
10h 39m
Waning Gibbous, 92% of the Moon is Illuminated
Oct 21
Waning Gibbous
Oct 26
Last Quarter
Nov 3
New
Nov 9
First Quarter
Nov 17
Full

Hourly Weather History & Observations

Time (CDT) Temp. Windchill Dew Point Humidity Pressure Visibility Wind Dir Wind Speed Gust Speed Precip Events Conditions
12:14 AM 33.8 °F 27.7 °F 23.0 °F 65% 29.98 in 10.0 mi NNW 6.9 mph - N/A   Overcast
12:33 AM 33.8 °F 27.0 °F 23.0 °F 65% 29.98 in 10.0 mi NW 8.1 mph - N/A   Overcast
12:54 AM 33.8 °F 27.0 °F 21.2 °F 60% 29.98 in 10.0 mi NW 8.1 mph - N/A   Overcast
1:13 AM 33.8 °F 26.4 °F 21.2 °F 60% 29.98 in 10.0 mi NNW 9.2 mph - N/A   Overcast
1:34 AM 33.8 °F 27.0 °F 23.0 °F 65% 29.98 in 10.0 mi NNW 8.1 mph - N/A   Overcast
1:54 AM 33.8 °F 27.0 °F 23.0 °F 65% 29.98 in 10.0 mi NW 8.1 mph - N/A   Overcast
2:13 AM 33.8 °F 26.4 °F 21.2 °F 60% 29.98 in 10.0 mi NW 9.2 mph - N/A   Overcast
2:34 AM 33.8 °F 26.4 °F 21.2 °F 60% 29.99 in 10.0 mi NW 9.2 mph - N/A   Overcast
2:54 AM 33.8 °F 26.4 °F 23.0 °F 65% 29.99 in 10.0 mi NW 9.2 mph - N/A   Overcast
3:13 AM 33.8 °F 26.4 °F 23.0 °F 65% 29.99 in 10.0 mi NNW 9.2 mph - N/A   Overcast
3:34 AM 33.8 °F 27.7 °F 23.0 °F 65% 29.99 in 10.0 mi NW 6.9 mph - N/A   Overcast
3:53 AM 33.8 °F 27.0 °F 23.0 °F 65% 29.98 in 10.0 mi NW 8.1 mph - N/A   Overcast
4:14 AM 33.8 °F 27.7 °F 24.8 °F 70% 29.98 in 10.0 mi NW 6.9 mph - N/A   Overcast
4:34 AM 33.8 °F 27.7 °F 24.8 °F 70% 29.98 in 10.0 mi WNW 6.9 mph - N/A   Overcast
4:54 AM 33.8 °F 26.4 °F 24.8 °F 70% 29.98 in 10.0 mi WNW 9.2 mph - N/A   Overcast
5:14 AM 33.8 °F 26.4 °F 21.2 °F 60% 29.98 in 10.0 mi NW 9.2 mph 17.3 mph N/A   Overcast
5:33 AM 33.8 °F 26.4 °F 21.2 °F 60% 29.98 in 10.0 mi NW 9.2 mph - N/A   Overcast
5:54 AM 33.8 °F 25.3 °F 21.2 °F 60% 29.98 in 10.0 mi NNW 11.5 mph 16.1 mph N/A   Overcast
6:14 AM 33.8 °F 27.7 °F 21.2 °F 60% 29.98 in 10.0 mi NW 6.9 mph - N/A   Overcast
6:33 AM 33.8 °F 25.3 °F 21.2 °F 60% 29.99 in 10.0 mi NW 11.5 mph - N/A   Overcast
6:54 AM 33.8 °F 26.4 °F 21.2 °F 60% 29.98 in 10.0 mi NW 9.2 mph - N/A   Overcast
7:14 AM 32.0 °F 22.1 °F 19.4 °F 60% 29.99 in 10.0 mi NW 13.8 mph 17.3 mph N/A   Overcast
7:33 AM 32.0 °F 23.6 °F 19.4 °F 60% 29.98 in 10.0 mi NW 10.4 mph 16.1 mph N/A   Overcast
7:54 AM 32.0 °F 22.5 °F 19.4 °F 60% 29.99 in 10.0 mi NW 12.7 mph 16.1 mph N/A   Overcast
8:14 AM 32.0 °F 22.5 °F 19.4 °F 60% 30.00 in 10.0 mi NNW 12.7 mph 17.3 mph N/A   Overcast
8:31 AM 32.0 °F 24.8 °F 21.2 °F 64% 30.00 in 10.0 mi NW 8.1 mph - N/A   Overcast
8:54 AM 32.0 °F 23.0 °F 19.4 °F 60% 30.00 in 10.0 mi WNW 11.5 mph - N/A   Overcast
9:14 AM 32.0 °F 24.2 °F 21.2 °F 64% 30.00 in 10.0 mi NW 9.2 mph - N/A   Overcast
9:34 AM 33.8 °F 26.4 °F 21.2 °F 60% 30.00 in 10.0 mi NW 9.2 mph - N/A   Overcast
9:54 AM 33.8 °F 27.7 °F 21.2 °F 60% 30.00 in 10.0 mi NW 6.9 mph - N/A   Overcast
10:13 AM 33.8 °F 25.8 °F 19.4 °F 56% 30.00 in 10.0 mi WNW 10.4 mph - N/A   Overcast
10:34 AM 33.8 °F 26.4 °F 19.4 °F 56% 30.00 in 10.0 mi WNW 9.2 mph - N/A   Overcast
10:54 AM 35.6 °F 27.1 °F 19.4 °F 52% 29.99 in 10.0 mi NW 12.7 mph 18.4 mph N/A   Overcast
11:13 AM 35.6 °F 27.5 °F 19.4 °F 52% 30.00 in 10.0 mi NW 11.5 mph 17.3 mph N/A   Overcast
11:34 AM 35.6 °F 28.0 °F 19.4 °F 52% 29.99 in 10.0 mi NW 10.4 mph 16.1 mph N/A   Overcast
11:54 AM 37.4 °F 29.8 °F 19.4 °F 48% 29.99 in 10.0 mi NNW 11.5 mph 18.4 mph N/A   Overcast
12:13 PM 37.4 °F 29.8 °F 19.4 °F 48% 29.99 in 10.0 mi NW 11.5 mph 16.1 mph N/A   Mostly Cloudy
12:34 PM 37.4 °F 30.3 °F 21.2 °F 52% 29.99 in 10.0 mi NW 10.4 mph 17.3 mph N/A   Scattered Clouds
12:54 PM 37.4 °F 28.5 °F 19.4 °F 48% 29.98 in 10.0 mi NW 15.0 mph 19.6 mph N/A   Scattered Clouds
1:14 PM 39.2 °F 32.0 °F 21.2 °F 49% 29.97 in 10.0 mi NW 11.5 mph 18.4 mph N/A   Scattered Clouds
1:34 PM 39.2 °F 32.5 °F 19.4 °F 45% 29.97 in 10.0 mi NW 10.4 mph - N/A   Clear
1:53 PM 39.2 °F 31.6 °F 21.2 °F 49% 29.96 in 10.0 mi NW 12.7 mph - N/A   Clear
2:14 PM 39.2 °F 33.0 °F 21.2 °F 49% 29.96 in 10.0 mi NW 9.2 mph - N/A   Clear
2:34 PM 39.2 °F 33.0 °F 21.2 °F 49% 29.96 in 10.0 mi NW 9.2 mph 17.3 mph N/A   Clear
2:53 PM 39.2 °F 32.0 °F 21.2 °F 49% 29.95 in 10.0 mi NNW 11.5 mph - N/A   Clear
3:14 PM 41.0 °F 34.7 °F 21.2 °F 45% 29.95 in 10.0 mi NW 10.4 mph - N/A   Clear
3:34 PM 41.0 °F 34.3 °F 21.2 °F 45% 29.95 in 10.0 mi WNW 11.5 mph - N/A   Clear
3:53 PM 41.0 °F 35.2 °F 21.2 °F 45% 29.95 in 10.0 mi West 9.2 mph - N/A   Clear
4:14 PM 42.8 °F 36.6 °F 21.2 °F 42% 29.95 in 10.0 mi NW 11.5 mph - N/A   Clear
4:34 PM 41.0 °F 35.2 °F 21.2 °F 45% 29.95 in 10.0 mi NNW 9.2 mph - N/A   Clear
4:53 PM 41.0 °F 36.4 °F 21.2 °F 45% 29.95 in 10.0 mi NNW 6.9 mph - N/A   Clear
5:14 PM 41.0 °F 35.8 °F 21.2 °F 45% 29.95 in 10.0 mi NW 8.1 mph - N/A   Clear
5:34 PM 39.2 °F 35.0 °F 21.2 °F 49% 29.95 in 10.0 mi NNW 5.8 mph - N/A   Clear
5:53 PM 39.2 °F 35.0 °F 21.2 °F 49% 29.95 in 10.0 mi North 5.8 mph - N/A   Clear
6:14 PM 37.4 °F 32.1 °F 21.2 °F 52% 29.95 in 10.0 mi North 6.9 mph - N/A   Clear
6:33 PM 35.6 °F 29.9 °F 21.2 °F 56% 29.96 in 10.0 mi North 6.9 mph - N/A   Clear
6:54 PM 33.8 °F 28.6 °F 23.0 °F 65% 29.96 in 10.0 mi North 5.8 mph - N/A   Clear
7:14 PM 33.8 °F 28.6 °F 23.0 °F 65% 29.96 in 10.0 mi North 5.8 mph - N/A   Clear
7:33 PM 30.2 °F 24.3 °F 21.2 °F 69% 29.96 in 10.0 mi North 5.8 mph - N/A   Scattered Clouds
7:54 PM 30.2 °F 26.7 °F 23.0 °F 75% 29.96 in 10.0 mi NNE 3.5 mph - N/A   Mostly Cloudy
8:14 PM 30.2 °F 26.7 °F 23.0 °F 75% 29.96 in 10.0 mi NE 3.5 mph - N/A   Scattered Clouds
8:33 PM 30.2 °F 24.3 °F 23.0 °F 75% 29.95 in 10.0 mi NNE 5.8 mph - N/A   Clear
8:54 PM 30.2 °F 25.4 °F 23.0 °F 75% 29.95 in 10.0 mi NE 4.6 mph - N/A   Clear
9:13 PM 28.4 °F 22.2 °F 23.0 °F 80% 29.96 in 10.0 mi NE 5.8 mph - N/A   Clear
9:34 PM 28.4 °F - 24.8 °F 86% 29.96 in 10.0 mi Calm Calm - N/A   Clear
9:54 PM 30.2 °F - 23.0 °F 75% 29.96 in 10.0 mi Calm Calm - N/A   Clear
10:13 PM 28.4 °F 24.6 °F 24.8 °F 86% 29.96 in 10.0 mi NE 3.5 mph - N/A   Clear
10:34 PM 28.4 °F 24.6 °F 24.8 °F 86% 29.96 in 10.0 mi ENE 3.5 mph - N/A   Clear
10:53 PM 26.6 °F - 21.2 °F 80% 29.96 in 10.0 mi Calm Calm - N/A   Clear
11:14 PM 26.6 °F 22.6 °F 23.0 °F 86% 29.96 in 10.0 mi ENE 3.5 mph - N/A   Clear
11:34 PM 28.4 °F 24.6 °F 24.8 °F 86% 29.96 in 10.0 mi ENE 3.5 mph - N/A   Clear
11:54 PM 26.6 °F - 23.0 °F 86% 29.96 in 10.0 mi Calm Calm - N/A   Clear